| time (UTC) | temp F | wind direction | speed MPH | gust MPH | rain 1hr in | rain 24hr in | rain mn in | humidity % | barometer mb |
| 20260505023608 | 43 | 194 | 0.0 | 2.0 | 0.00 | 0.00 | 0.00 | 57 | 1005.5 |
| 20260505023107 | 43 | 208 | 0.0 | 2.0 | 0.00 | 0.00 | 0.00 | 57 | 1005.5 |
| 20260505022606 | 43 | 166 | 0.0 | 1.0 | 0.00 | 0.00 | 0.00 | 57 | 1005.5 |
| 20260505022107 | 44 | 155 | 0.0 | 1.0 | 0.00 | 0.00 | 0.00 | 57 | 1005.4 |
| 20260505021610 | 44 | 202 | 0.0 | 1.0 | 0.00 | 0.00 | 0.00 | 55 | 1005.3 |
| 20260505021606 | 44 | 189 | 0.0 | 1.0 | 0.00 | 0.00 | 0.00 | 56 | 1005.4 |
| 20260505020602 | 44 | 202 | 0.0 | 2.0 | 0.00 | 0.00 | 0.00 | 54 | 1005.2 |
| 20260505020329 | 44 | 229 | 0.0 | 3.0 | 0.00 | 0.00 | 0.00 | 53 | 1005.2 |
| 20260505015821 | 45 | 258 | 1.0 | 5.0 | 0.00 | 0.00 | 0.00 | 53 | 1005.1 |
| 20260505015045 | 45 | 294 | 1.0 | 5.0 | 0.00 | 0.00 | 0.00 | 52 | 1005.1 |
| 20260505014539 | 45 | 114 | 0.0 | 2.0 | 0.00 | 0.00 | 0.00 | 52 | 1005.0 |
| 20260505014307 | 45 | 224 | 0.0 | 3.0 | 0.00 | 0.00 | 0.00 | 53 | 1004.9 |
| 20260505013527 | 46 | 277 | 1.0 | 3.0 | 0.00 | 0.00 | 0.00 | 52 | 1004.8 |
| 20260505013021 | 46 | 150 | 1.0 | 3.0 | 0.00 | 0.00 | 0.00 | 51 | 1004.8 |
| 20260505012514 | 46 | 219 | 1.0 | 3.0 | 0.00 | 0.00 | 0.00 | 51 | 1004.7 |
| 20260505012240 | 47 | 194 | 1.0 | 3.0 | 0.00 | 0.00 | 0.00 | 52 | 1004.6 |
| 20260505011503 | 47 | 253 | 1.0 | 3.0 | 0.00 | 0.00 | 0.00 | 50 | 1004.6 |
| 20260505011002 | 47 | 173 | 2.0 | 6.0 | 0.00 | 0.00 | 0.00 | 50 | 1004.5 |
| 20260505010500 | 47 | 41 | 2.0 | 7.0 | 0.00 | 0.00 | 0.00 | 49 | 1004.5 |
| 20260505010000 | 48 | 167 | 2.0 | 7.0 | 0.00 | 0.00 | 0.00 | 49 | 1004.4 |
| 20260505005500 | 48 | 205 | 2.0 | 7.0 | 0.00 | 0.00 | 0.00 | 48 | 1004.3 |
| 20260505004958 | 49 | 79 | 2.0 | 6.0 | 0.00 | 0.00 | 0.00 | 46 | 1004.3 |
| 20260505004456 | 49 | 132 | 2.0 | 6.0 | 0.00 | 0.00 | 0.00 | 47 | 1004.3 |
| 20260505003956 | 49 | 162 | 1.0 | 5.0 | 0.00 | 0.00 | 0.00 | 51 | 1004.3 |
| 20260505003459 | 49 | 89 | 1.0 | 5.0 | 0.00 | 0.00 | 0.00 | 51 | 1004.3 |
| 20260505002957 | 49 | 138 | 1.0 | 5.0 | 0.00 | 0.00 | 0.00 | 49 | 1004.2 |
| 20260505002454 | 49 | 283 | 1.0 | 4.0 | 0.00 | 0.00 | 0.00 | 49 | 1004.2 |
| 20260505001954 | 49 | 109 | 0.0 | 3.0 | 0.00 | 0.00 | 0.00 | 50 | 1004.2 |
| 20260505001726 | 49 | 91 | 1.0 | 6.0 | 0.00 | 0.00 | 0.00 | 50 | 1004.1 |
| 20260505000953 | 50 | 264 | 3.0 | 10.0 | 0.00 | 0.00 | 0.00 | 48 | 1004.0 |
| 20260505000454 | 51 | 176 | 2.0 | 10.0 | 0.00 | 0.00 | 0.00 | 45 | 1003.8 |
| 20260504235952 | 52 | 120 | 1.0 | 7.0 | 0.00 | 0.00 | 0.00 | 45 | 1003.7 |
| 20260504235453 | 52 | 222 | 2.0 | 7.0 | 0.00 | 0.00 | 0.00 | 46 | 1003.6 |
| 20260504235448 | 52 | 69 | 1.0 | 7.0 | 0.00 | 0.00 | 0.00 | 46 | 1003.6 |
| 20260504234449 | 53 | 338 | 2.0 | 7.0 | 0.00 | 0.00 | 0.00 | 43 | 1003.5 |
| 20260504233948 | 54 | 96 | 2.0 | 9.0 | 0.00 | 0.00 | 0.00 | 42 | 1003.4 |
| 20260504233448 | 54 | 314 | 1.0 | 9.0 | 0.00 | 0.00 | 0.00 | 43 | 1003.4 |
| 20260504233219 | 53 | 105 | 1.0 | 5.0 | 0.00 | 0.00 | 0.00 | 42 | 1003.3 |
| 20260504232447 | 54 | 210 | 1.0 | 6.0 | 0.00 | 0.00 | 0.00 | 45 | 1003.3 |
| 20260504231943 | 54 | 233 | 2.0 | 7.0 | 0.00 | 0.00 | 0.00 | 42 | 1003.1 |
| 20260504231442 | 55 | 86 | 2.0 | 7.0 | 0.00 | 0.00 | 0.00 | 44 | 1003.2 |
| 20260504230942 | 55 | 142 | 2.0 | 5.0 | 0.00 | 0.00 | 0.00 | 42 | 1003.2 |
| 20260504230715 | 55 | 282 | 2.0 | 8.0 | 0.00 | 0.00 | 0.00 | 43 | 1003.1 |
| 20260504225944 | 55 | 190 | 2.0 | 8.0 | 0.00 | 0.00 | 0.00 | 42 | 1003.0 |
| 20260504225713 | 55 | 78 | 2.0 | 6.0 | 0.00 | 0.00 | 0.00 | 42 | 1002.9 |
| 20260504224942 | 56 | 5 | 2.0 | 7.0 | 0.00 | 0.00 | 0.00 | 41 | 1002.7 |
| 20260504224443 | 55 | 58 | 2.0 | 7.0 | 0.00 | 0.00 | 0.00 | 43 | 1002.7 |
| 20260504223937 | 56 | 62 | 1.0 | 6.0 | 0.00 | 0.00 | 0.00 | 44 | 1002.6 |
| 20260504223432 | 56 | 302 | 2.0 | 6.0 | 0.00 | 0.00 | 0.00 | 41 | 1002.6 |
| 20260504223427 | 57 | 160 | 2.0 | 6.0 | 0.00 | 0.00 | 0.00 | 41 | 1002.5 |
| 20260504222649 | 56 | 15 | 2.0 | 8.0 | 0.00 | 0.00 | 0.00 | 43 | 1002.3 |
| 20260504221919 | 56 | 233 | 2.0 | 8.0 | 0.00 | 0.00 | 0.00 | 42 | 1002.2 |
| 20260504221425 | 56 | 167 | 2.0 | 10.0 | 0.00 | 0.00 | 0.00 | 44 | 1002.2 |
| 20260504221420 | 56 | 194 | 2.0 | 8.0 | 0.00 | 0.00 | 0.00 | 45 | 1002.3 |
| 20260504220417 | 56 | 108 | 2.0 | 10.0 | 0.00 | 0.00 | 0.00 | 44 | 1002.1 |
| 20260504215915 | 56 | 342 | 2.0 | 9.0 | 0.00 | 0.00 | 0.00 | 44 | 1002.0 |
| 20260504215414 | 57 | 190 | 1.0 | 8.0 | 0.00 | 0.00 | 0.00 | 44 | 1002.0 |
| 20260504214915 | 57 | 200 | 2.0 | 9.0 | 0.00 | 0.00 | 0.00 | 42 | 1001.9 |
| 20260504214414 | 57 | 238 | 2.0 | 9.0 | 0.00 | 0.00 | 0.00 | 44 | 1001.9 |
| 20260504214142 | 58 | 202 | 2.0 | 7.0 | 0.00 | 0.00 | 0.00 | 44 | 1001.8 |
| 20260504213412 | 58 | 133 | 2.0 | 6.0 | 0.00 | 0.00 | 0.00 | 44 | 1001.8 |
| 20260504212913 | 58 | 117 | 1.0 | 7.0 | 0.00 | 0.00 | 0.00 | 46 | 1001.5 |
| 20260504212412 | 59 | 318 | 2.0 | 7.0 | 0.00 | 0.00 | 0.00 | 43 | 1001.4 |
| 20260504211912 | 59 | 75 | 1.0 | 7.0 | 0.00 | 0.00 | 0.00 | 43 | 1001.3 |
| 20260504211412 | 60 | 352 | 2.0 | 11.0 | 0.00 | 0.00 | 0.00 | 43 | 1001.3 |
| 20260504210912 | 60 | 131 | 3.0 | 11.0 | 0.00 | 0.00 | 0.00 | 40 | 1001.4 |
| 20260504210412 | 60 | 165 | 3.0 | 7.0 | 0.00 | 0.00 | 0.00 | 41 | 1001.3 |
| 20260504210143 | 60 | 82 | 2.0 | 7.0 | 0.00 | 0.00 | 0.00 | 44 | 1001.3 |
| 20260504205407 | 58 | 5 | 3.0 | 7.0 | 0.00 | 0.00 | 0.00 | 50 | 1001.1 |
| 20260504204900 | 57 | 28 | 3.0 | 9.0 | 0.00 | 0.00 | 0.00 | 45 | 1001.2 |
| 20260504204355 | 58 | 354 | 2.0 | 9.0 | 0.00 | 0.00 | 0.00 | 44 | 1001.1 |
| 20260504203850 | 58 | 15 | 2.0 | 9.0 | 0.00 | 0.00 | 0.00 | 45 | 1001.1 |
| 20260504203342 | 60 | 193 | 2.0 | 8.0 | 0.00 | 0.00 | 0.00 | 44 | 1001.0 |
| 20260504202836 | 59 | 273 | 2.0 | 7.0 | 0.00 | 0.00 | 0.00 | 45 | 1001.0 |
| 20260504202331 | 58 | 348 | 2.0 | 7.0 | 0.00 | 0.00 | 0.00 | 48 | 1001.2 |
| 20260504201825 | 59 | 345 | 3.0 | 11.0 | 0.00 | 0.00 | 0.00 | 46 | 1001.0 |
| 20260504201319 | 59 | 155 | 3.0 | 11.0 | 0.00 | 0.00 | 0.00 | 45 | 1000.9 |
| 20260504201043 | 59 | 233 | 2.0 | 7.0 | 0.00 | 0.00 | 0.00 | 46 | 1000.9 |
| 20260504200307 | 60 | 13 | 1.0 | 8.0 | 0.00 | 0.00 | 0.00 | 43 | 1000.8 |
| 20260504195800 | 62 | 324 | 2.0 | 8.0 | 0.00 | 0.00 | 0.00 | 44 | 1000.8 |
| 20260504195255 | 62 | 323 | 2.0 | 7.0 | 0.00 | 0.00 | 0.00 | 44 | 1000.7 |
| 20260504195021 | 63 | 134 | 3.0 | 10.0 | 0.00 | 0.00 | 0.00 | 45 | 1000.5 |
| 20260504194244 | 64 | 214 | 3.0 | 13.0 | 0.00 | 0.00 | 0.00 | 43 | 1000.4 |
| 20260504193737 | 64 | 290 | 3.0 | 13.0 | 0.00 | 0.00 | 0.00 | 44 | 1000.3 |
| 20260504193231 | 64 | 165 | 3.0 | 9.0 | 0.00 | 0.00 | 0.00 | 45 | 1000.3 |
| 20260504192725 | 64 | 240 | 3.0 | 9.0 | 0.00 | 0.00 | 0.00 | 44 | 1000.2 |
| 20260504192219 | 64 | 225 | 2.0 | 8.0 | 0.00 | 0.00 | 0.00 | 43 | 1000.2 |
| 20260504191713 | 64 | 290 | 4.0 | 10.0 | 0.00 | 0.00 | 0.00 | 43 | 1000.2 |
| 20260504191207 | 63 | 139 | 3.0 | 10.0 | 0.00 | 0.00 | 0.00 | 45 | 1000.0 |
| 20260504190701 | 64 | 193 | 2.0 | 8.0 | 0.00 | 0.00 | 0.00 | 46 | 1000.1 |
| 20260504190155 | 63 | 316 | 2.0 | 8.0 | 0.00 | 0.00 | 0.00 | 46 | 999.9 |
| 20260504185650 | 63 | 102 | 2.0 | 10.0 | 0.00 | 0.00 | 0.00 | 47 | 999.8 |
| 20260504185644 | 62 | 312 | 3.0 | 10.0 | 0.00 | 0.00 | 0.00 | 44 | 999.7 |
| 20260504184636 | 62 | 180 | 3.0 | 10.0 | 0.00 | 0.00 | 0.00 | 48 | 999.7 |
| 20260504184131 | 63 | 95 | 3.0 | 10.0 | 0.00 | 0.00 | 0.00 | 45 | 999.7 |
| 20260504183625 | 63 | 204 | 3.0 | 10.0 | 0.00 | 0.00 | 0.00 | 46 | 999.6 |
| 20260504183349 | 63 | 252 | 3.0 | 7.0 | 0.00 | 0.00 | 0.00 | 48 | 999.6 |
| 20260504182613 | 62 | 162 | 3.0 | 10.0 | 0.00 | 0.00 | 0.00 | 48 | 999.4 |
| 20260504182107 | 61 | 133 | 3.0 | 10.0 | 0.00 | 0.00 | 0.00 | 45 | 999.4 |
| 20260504181601 | 61 | 295 | 3.0 | 9.0 | 0.00 | 0.00 | 0.00 | 44 | 999.2 |
| 20260504181054 | 62 | 18 | 2.0 | 9.0 | 0.00 | 0.00 | 0.00 | 45 | 999.2 |
| 20260504180819 | 63 | 321 | 2.0 | 7.0 | 0.00 | 0.00 | 0.00 | 46 | 999.1 |
| 20260504180042 | 64 | 94 | 2.0 | 10.0 | 0.00 | 0.00 | 0.00 | 47 | 999.1 |
| 20260504175537 | 64 | 39 | 2.0 | 10.0 | 0.00 | 0.00 | 0.00 | 46 | 998.9 |
| 20260504175031 | 64 | 97 | 2.0 | 9.0 | 0.00 | 0.00 | 0.00 | 47 | 999.0 |
| 20260504174524 | 64 | 68 | 3.0 | 10.0 | 0.00 | 0.00 | 0.00 | 42 | 998.7 |
| 20260504174019 | 64 | 113 | 3.0 | 10.0 | 0.00 | 0.00 | 0.00 | 43 | 998.6 |
| 20260504173744 | 64 | 176 | 3.0 | 11.0 | 0.00 | 0.00 | 0.00 | 46 | 998.8 |
| 20260504173239 | 64 | 131 | 3.0 | 11.0 | 0.00 | 0.00 | 0.00 | 40 | 998.7 |
| 20260504172501 | 64 | 222 | 3.0 | 9.0 | 0.00 | 0.00 | 0.00 | 45 | 998.7 |
| 20260504171954 | 64 | 305 | 4.0 | 12.0 | 0.00 | 0.00 | 0.00 | 45 | 998.7 |
| 20260504171720 | 63 | 122 | 4.0 | 11.0 | 0.00 | 0.00 | 0.00 | 43 | 998.5 |
| 20260504170943 | 62 | 222 | 5.0 | 11.0 | 0.00 | 0.00 | 0.00 | 44 | 998.6 |
| 20260504170436 | 61 | 215 | 5.0 | 9.0 | 0.00 | 0.00 | 0.00 | 45 | 998.7 |
| 20260504160325 | 62 | 179 | 3.0 | 13.0 | 0.00 | 0.00 | 0.00 | 46 | 998.1 |
| 20260504150718 | 62 | 231 | 3.0 | 8.0 | 0.00 | 0.00 | 0.00 | 48 | 997.6 |
| 20260504150443 | 61 | 110 | 2.0 | 5.0 | 0.00 | 0.00 | 0.00 | 51 | 997.7 |
| 20260504141114 | 59 | 180 | 2.0 | 6.0 | 0.00 | 0.00 | 0.00 | 51 | 997.5 |
| 20260504140607 | 58 | 211 | 1.0 | 8.0 | 0.00 | 0.00 | 0.00 | 54 | 997.5 |
| 20260504140333 | 58 | 167 | 2.0 | 8.0 | 0.00 | 0.00 | 0.00 | 53 | 997.5 |
| 20260504130727 | 58 | 194 | 2.0 | 7.0 | 0.00 | 0.00 | 0.00 | 55 | 996.8 |
| 20260504110231 | 59 | 212 | 5.0 | 11.0 | 0.00 | 0.00 | 0.00 | 45 | 994.8 |
| 20260504100119 | 58 | 249 | 3.0 | 10.0 | 0.00 | 0.00 | 0.00 | 43 | 994.9 |
| 20260504081547 | 57 | 214 | 2.0 | 5.0 | 0.00 | 0.00 | 0.00 | 45 | 996.9 |
| 20260504081045 | 57 | 239 | 2.0 | 5.0 | 0.00 | 0.00 | 0.00 | 45 | 997.0 |
| 20260504080553 | 57 | 239 | 1.0 | 7.0 | 0.00 | 0.00 | 0.00 | 45 | 997.1 |
| 20260504050515 | 55 | 231 | 1.0 | 4.0 | 0.00 | 0.00 | 0.00 | 51 | 1000.7 |
| 20260504050014 | 55 | 181 | 1.0 | 4.0 | 0.00 | 0.00 | 0.00 | 51 | 1000.8 |
| 20260504045744 | 55 | 235 | 0.0 | 3.0 | 0.00 | 0.00 | 0.00 | 50 | 1000.9 |
| 20260504045010 | 55 | 195 | 0.0 | 4.0 | 0.00 | 0.00 | 0.00 | 53 | 1001.0 |
| 20260504044511 | 54 | 204 | 0.0 | 4.0 | 0.00 | 0.00 | 0.00 | 51 | 1001.0 |
| 20260504044242 | 54 | 151 | 0.0 | 2.0 | 0.00 | 0.00 | 0.00 | 51 | 1001.1 |
| 20260504043506 | 54 | 153 | 0.0 | 3.0 | 0.00 | 0.00 | 0.00 | 51 | 1001.2 |
| 20260504043006 | 54 | 178 | 0.0 | 3.0 | 0.00 | 0.00 | 0.00 | 51 | 1001.3 |
| 20260504042506 | 54 | 162 | 0.0 | 1.0 | 0.00 | 0.00 | 0.00 | 51 | 1001.4 |
| 20260504042004 | 54 | 131 | 0.0 | 1.0 | 0.00 | 0.00 | 0.00 | 50 | 1001.5 |
| 20260504041502 | 55 | 131 | 0.0 | 1.0 | 0.00 | 0.00 | 0.00 | 50 | 1001.8 |
| 20260504041003 | 55 | 156 | 0.0 | 1.0 | 0.00 | 0.00 | 0.00 | 50 | 1001.9 |
| 20260504040458 | 55 | 190 | 0.0 | 1.0 | 0.00 | 0.00 | 0.00 | 49 | 1002.0 |
| 20260504035954 | 55 | 161 | 0.0 | 1.0 | 0.00 | 0.00 | 0.00 | 49 | 1002.1 |
| 20260504035454 | 54 | 170 | 0.0 | 1.0 | 0.00 | 0.00 | 0.00 | 49 | 1002.2 |
| 20260504034954 | 54 | 170 | 0.0 | 1.0 | 0.00 | 0.00 | 0.00 | 49 | 1002.3 |
| 20260504034454 | 54 | 181 | 0.0 | 1.0 | 0.00 | 0.00 | 0.00 | 48 | 1002.3 |
| 20260504034229 | 54 | 165 | 0.0 | 1.0 | 0.00 | 0.00 | 0.00 | 48 | 1002.5 |
| 20260504033453 | 54 | 165 | 0.0 | 1.0 | 0.00 | 0.00 | 0.00 | 48 | 1002.6 |
| 20260504032947 | 54 | 157 | 0.0 | 1.0 | 0.00 | 0.00 | 0.00 | 48 | 1002.7 |
| 20260504032441 | 54 | 156 | 0.0 | 0.0 | 0.00 | 0.00 | 0.00 | 47 | 1002.9 |
| 20260504031935 | 55 | 156 | 0.0 | 0.0 | 0.00 | 0.00 | 0.00 | 47 | 1002.9 |
| 20260504031431 | 55 | 157 | 0.0 | 0.0 | 0.00 | 0.00 | 0.00 | 46 | 1003.0 |
| 20260504031425 | 55 | 156 | 0.0 | 0.0 | 0.00 | 0.00 | 0.00 | 45 | 1003.0 |
| 20260504030417 | 56 | 156 | 0.0 | 0.0 | 0.00 | 0.00 | 0.00 | 45 | 1003.2 |
| 20260504025910 | 55 | 157 | 0.0 | 0.0 | 0.00 | 0.00 | 0.00 | 45 | 1003.2 |
| 20260504025405 | 55 | 157 | 0.0 | 0.0 | 0.00 | 0.00 | 0.00 | 46 | 1003.3 |
| 20260504024906 | 55 | 156 | 0.0 | 0.0 | 0.00 | 0.00 | 0.00 | 50 | 1003.3 |
| 20260504024901 | 55 | 156 | 0.0 | 0.0 | 0.00 | 0.00 | 0.00 | 46 | 1003.3 |